Regional Weather Roundup
Issued by NWS

Home | Current Version | Previous Version | Text Only | Print | Product List | Glossary On
Versions: 1 2 3 4 5 6 7 8 9 10 11 12 13 14 15 16 17 18 19 20 21 22 23 24 25 26 27 28
000
ASUS42 KTBW 252017
RWRFL
FLORIDA REGIONAL WEATHER ROUNDUP
NATIONAL WEATHER SERVICE TAMPA BAY RUSKIN FL
400 PM EDT SAT MAR 25 2017

NOTE: "FAIR" INDICATES FEW OR NO CLOUDS BELOW 12,000 FEET WITH NO
SIGNIFICANT WEATHER AND/OR OBSTRUCTIONS TO VISIBILITY.

FLZ001>010-012>015-112-114-115-252100-
PANHANDLE FLORIDA

CITY           SKY/WX    TMP DP  RH WIND       PRES   REMARKS
PENSACOLA      CLOUDY    76  65  68 SE16G25   30.09F
PENSACOLA NAS  PTSUNNY   75  66  73 SE15G24   30.08F
CRESTVIEW      CLOUDY    74  61  63 S12G22    30.12F
DUKE FIELD     PTSUNNY   74  62  66 S17G23    30.11F
VALPARAISO     CLOUDY    72  64  78 SE13      30.12F
MARY ESTHER    CLOUDY    72  64  75 SE15G23   30.10F
PANAMA CITY    FAIR      76  61  59 SE17G26   30.13F
TYNDALL AFB    PTSUNNY   76  62  61 S20       30.14F
APALACHICOLA   SUNNY     73  65  75 SE13      30.16F

STATION/POSITION SKY/WX   TEMP    WIND        PRES    WAVE   SWELL
                          AIR SEA DIR/SP/G            HT/PER HT/PER
                          (F)     (DEG/KT/KT) (MB)    (FT/S) (FT/S)
30.1N   87.6W              70 69  150/ 17/ 21 1018.1F   5/ 7   2/13
29.2N   88.2W              72 73  150/ 19/ 25 1018.0F   6/ 7
28.8N   86.0W              71 71              1020.1F   5/ 7
PANAMA CITY BEAC           69 71  140/ 17/ 20 1020.5F
TOWER C                    68     140/ 14/ 15 1021.8F
28.5N   84.5W              70 69  130/ 14/ 16 1020.8F   3/ 5

$$
FLZ011-016>038-118-127-128-134-139-239-252100-
NORTH FLORIDA

CITY           SKY/WX    TMP DP  RH WIND       PRES   REMARKS
MARIANNA       MOSUNNY   82  56  40 S12G17    30.10F
TALLAHASSEE    PTSUNNY   78  55  44 S13       30.15F
PERRY          CLOUDY    78  55  44 SW12G18   30.17F
CROSS CITY     PTSUNNY   81  54  39 E3        30.15F
LAKE CITY      PTSUNNY   79  54  41 SE3       30.16F
GAINESVILLE    PTSUNNY   81  55  40 SE10      30.16F
WILLISTON      SUNNY     84  54  34 E6        30.15F
PALATKA        PTSUNNY   77  55  47 E14G20    30.18F
MAYPORT NAS    SUNNY     76  58  53 SE14      30.21F
JACKSONVILLE   PTSUNNY   76  56  49 E16G22    30.19F
JAX NAS        PTSUNNY   77  58  51 E14       30.20F
FERNANDINA BEA FAIR      77  61  57 E8        30.21F
ST AUGUSTINE   MOSUNNY   74  61  63 SE20      30.21F
PALM COAST     SUNNY     77  61  57 SE12G23   30.20

STATION/POSITION SKY/WX   TEMP    WIND        PRES    WAVE   SWELL
                          AIR SEA DIR/SP/G            HT/PER HT/PER
                          (F)     (DEG/KT/KT) (MB)    (FT/S) (FT/S)
SHELL POINT      NOT AVBL
KEATON BEACH               69     200/  9/ 10 1021.4F
CEDAR KEY                  72     240/  4/  6 1021.5F
FERNANDINA                 74 66  120/  5/ 11 1024.0F
30.7N   81.3W                 66                N/A     4/ 8
MAYPORT                    73 66  120/ 10/ 16 1023.5F
31.4N   80.9W              66 63  110/  8/  8 1023.8F   5/ 8   5/ 8
ST AUGUSTINE               68 69  110/ 11/ 13 1023.9F

$$
FLZ040-043>046-052-053-057-058-063-144-252100-
INTERIOR CENTRAL FLORIDA

CITY           SKY/WX    TMP DP  RH WIND       PRES   REMARKS
OCALA          PTSUNNY   81  55  41 SE8       30.17F
THE VILLAGES     N/A     81  59  47 MISG      30.06F
LEESBURG       MOSUNNY   80  56  43 SE9       30.17F
SANFORD        CLOUDY    79  54  41 E15       30.18F
ORLANDO EXEC   PTSUNNY   81  56  42 E14       30.17F
ORLANDO INTL   PTSUNNY   83  55  38 E15G21    30.17F
KISSIMMEE      CLOUDY    80  57  45 E10       30.17F
WINTER HAVEN   MOSUNNY   82  49  31 E10       30.16F
LAKELAND       MOSUNNY   81  54  39 N3        30.16F
OKEECHOBEE     PTSUNNY  N/A N/A N/A SE7       30.16F

$$
FLZ041-047-054-059-064-141-147-252100-
EAST CENTRAL FLORIDA

CITY           SKY/WX    TMP DP  RH WIND       PRES   REMARKS
ORMOND BEACH   MOSUNNY   73  61  64 E12G18    30.21F
DAYTONA BEACH  PTSUNNY   74  61  63 E12       30.20F
DELAND         MOSUNNY   79  59  50 E13       30.18F
NEW SMYRNA BEA MOSUNNY   73  57  56 SE14G21   30.22F
JFK SPACE CTR  CLOUDY    76  58  55 E9G17     30.18F
TITUSVILLE     PTSUNNY   75  54  46 SE9       30.20F
CAPE CANAVERAL PTSUNNY   82  59  45 SE10      30.18F
PATRICK AFB    SUNNY     77  60  55 E10       30.18F
MELBOURNE      SUNNY     79  56  45 SE10      30.18F
VERO BEACH     MOSUNNY   78  59  51 SE10      30.18F
FT PIERCE      CLOUDY    77  60  55 SE15      30.18F
STUART         PTSUNNY   77  63  61 E12G17    30.19F

STATION/POSITION SKY/WX   TEMP    WIND        PRES    WAVE   SWELL
                          AIR SEA DIR/SP/G            HT/PER HT/PER
                          (F)     (DEG/KT/KT) (MB)    (FT/S) (FT/S)
TRIDENT PIER               77 71  120/  7/  9 1023.7F
28.4N   80.5W                 71                N/A     4/ 8
27.5N   80.2W                 71                N/A     5/ 9   2/11

$$
FLZ050-056-061-142-242-148-248-149-249-151-251-155-255-
160-260-252100-
WEST CENTRAL FLORIDA

CITY           SKY/WX    TMP DP  RH WIND       PRES   REMARKS
CRYSTAL RIVER  PTSUNNY   77  59  53 W3        30.15F
INVERNESS      FAIR      82  57  42 E6        30.16F HAZE
BROOKSVILLE    MOSUNNY   82  52  35 E8        30.15F
CLEARWATER AIR FAIR      79  54  41 E6        30.14F
ST PETE CLEARW MOSUNNY   82  50  32 N6        30.14F
TAMPA INTL     PTSUNNY   80  57  45 SW9       30.15F
TAMPA EXEC     CLOUDY    86  52  30 E6        30.15F
PLANT CITY     PTSUNNY   86  55  35 SE10      30.16F
MACDILL AFB    MOSUNNY   84  56  38 NW5       30.14F
PETER O KNIGHT MOSUNNY   84  55  37 SW5       30.14F
ST PETERSBURG  MOSUNNY   82  58  43 CALM      30.13F
SARASOTA       MOSUNNY   79  60  52 W13       30.13F
VENICE         FAIR      77  64  65 NW13      30.14F

STATION/POSITION SKY/WX   TEMP    WIND        PRES    WAVE   SWELL
                          AIR SEA DIR/SP/G            HT/PER HT/PER
                          (F)     (DEG/KT/KT) (MB)    (FT/S) (FT/S)
27.3N   84.2W                 71                N/A     4/ 6
CLEARWATER BEACH NOT AVBL
MIDDLE TAMPA BAY           74     350/  5/  6 1021.1F
VENICE                     72 70  320/ 12/ 14 1020.2F

$$
FLZ066-069-070-075>078-162-262-165-265-252100-
SOUTHWEST FLORIDA AND KEYS

CITY           SKY/WX    TMP DP  RH WIND       PRES   REMARKS
PUNTA GORDA    PTSUNNY   82  54  37 E6        30.13F
FT MYERS       MOSUNNY   86  55  34 VRB3      30.11F
SOUTHWEST INTL PTSUNNY   83  55  38 E14G20    30.11F
NAPLES         PTSUNNY   77  63  61 W9        30.11F
IMMOKALEE      PTSUNNY   82  57  42 E13       30.11F
MARATHON       MOSUNNY   82  63  52 E12G17    30.11F
KEY WEST NAS   PTSUNNY   80  64  58 E18       30.10F
KEY WEST INTL  MOSUNNY   80  66  62 E16       30.11F

STATION/POSITION SKY/WX   TEMP    WIND        PRES    WAVE   SWELL
                          AIR SEA DIR/SP/G            HT/PER HT/PER
                          (F)     (DEG/KT/KT) (MB)    (FT/S) (FT/S)
NAPLES                        72              1019.9F
26.0N   85.6W              74 76  110/ 17/ 19 1019.4F   7/ 8
DRY TORTUGAS               74      80/ 17/ 19 1019.3F
SAND KEY                   76     120/ 18/ 20 1019.8F
LONG KEY                   75 75  100/ 11/ 12 1020.1F
MOLASSES REEF                      90/ 17       N/A

$$
FLZ067-068-071>074-168-172>174-252100-
SOUTHEAST FLORIDA

CITY           SKY/WX    TMP DP  RH WIND       PRES   REMARKS
W PALM BEACH   PTSUNNY   77  61  57 E10       30.16F
BOCA RATON     MOSUNNY   79  63  57 E12G18    30.15F
FT LAUDER-EXEC CLOUDY    81  61  50 E15       30.14F
FT LAUDERDALE  PTSUNNY   79  64  60 E14       30.13F
POMPANO BEACH  PTSUNNY   77  62  59 E13       30.14F
PEMBROKE PINES PTSUNNY   79  63  57 E17       30.15F
OPA LOCKA      CLOUDY    80  63  55 E14       30.14F
MIAMI          CLOUDY    81  63  54 E15       30.13F
WEST KENDALL   PTSUNNY   79  62  56 E17       30.13F
HOMESTEAD      MOSUNNY   78  66  67 NE13      30.12F

STATION/POSITION SKY/WX   TEMP    WIND        PRES    WAVE   SWELL
                          AIR SEA DIR/SP/G            HT/PER HT/PER
                          (F)     (DEG/KT/KT) (MB)    (FT/S) (FT/S)
PORT EVERGLADES            76      80/ 11/ 18 1020.9F
VIRGINIA KEY               74      80/ 13/ 15 1020.8F
LAKE WORTH                         90/ 10/ 13   N/A
FOWEY ROCKS                74 76   80/ 16/ 18 1020.8F
SETTLEMENT POINT           71      70/ 18/ 20 1021.3F

$$





USA.gov is the U.S. government's official web portal to all federal, state and local government web resources and services.